Weather observations for the past three days for
Kinston, Kinston Regional Jetport at Stallings Field
Imperial (Metric)
Date Time (edt) Wind (mph) Vis. (mi.) Weather Sky Cond. Temperature (ºF) Relative Humidity Wind Chill (°F) Heat Index (°F) Pressure Precipitation (in)
Air Dwpt 6 hour altimeter (in) sea level (mb) 1 hr 3 hr 6 hr
Max. Min.
05 06:26 Calm 10.00 Fair CLR 53.6 51.8 94% 30.05 0.0
05 06:15 Calm 10.00 Fair CLR 53.1 50.7 92% 30.05 0.0
05 05:55 Calm 10.00 Fair CLR 54.1 51.6 91% 30.04 0.0
05 05:35 SW 3 10.00 Fair CLR 54.5 51.3 89% 30.04 0.0
05 05:15 SW 3 10.00 Fair CLR 53.6 50.9 91% 30.04 0.0
05 04:55 S 5 10.00 Fair CLR 54.3 50.9 88% 30.03 0.0
05 04:35 S 5 10.00 Fair CLR 54.9 50.9 87% 30.03 0.0
05 04:15 SW 7 10.00 Fair CLR 55.4 50.9 85% 30.03 0.0
05 03:55 S 5 10.00 Fair CLR 57.2 51.1 80% 30.03 0.0
05 03:35 S 6 10.00 Fair CLR 58.1 51.1 78% 30.02 0.0
05 03:15 S 7 10.00 Fair CLR 59 50.9 75% 30.02 0.0
05 02:55 S 7 10.00 Fair CLR 59.5 51.1 74% 30.02 0.0
05 02:35 S 7 10.00 Fair CLR 60.3 50.9 71% 30.02 0.0
05 02:15 SW 7 10.00 Fair CLR 60.3 50.9 71% 30.03 0.0
05 01:55 SW 8 10.00 Fair CLR 60.6 50.5 69.1 60.4 70% 30.03 0.0
05 01:35 S 8 10.00 Fair CLR 61.3 50.4 67% 30.04 0.0
05 01:15 SW 8 10.00 Fair CLR 61 50 67% 30.03 0.0
05 00:55 SW 9 10.00 Fair CLR 61.7 50 66% 30.04 0.0
05 00:35 SW 9 10.00 Fair CLR 61.7 49.5 64% 30.04 0.0
05 00:15 SW 10 10.00 Fair CLR 61.7 49.5 64% 30.04 0.0
04 23:55 S 9 10.00 Fair CLR 61.9 49.6 64% 30.03 0.0
04 23:35 S 9 10.00 Fair CLR 61.9 49.6 64% 30.03 0.0
04 23:10 S 9 10.00 Fair CLR 62.4 50 64% 30.04 0.0
04 22:55 S 10 10.00 Fair CLR 63.1 50 62% 30.04 0.0
04 21:50 S 9 10.00 Fair CLR 64.4 51.8 64% 30.04 0.0
04 20:50 S 12 10.00 Fair CLR 66.2 51.8 60% 30.01 0.0
04 19:50 S 13 10.00 Fair CLR 69.8 51.8 53% 29.99 0.0
04 18:50 S 16 G 25 10.00 Fair CLR 73.4 53.6 50% 29.97 0.0
04 17:50 S 17 G 28 10.00 Fair CLR 75.2 51.8 44% 78 29.95 0.0
04 16:50 SW 17 G 23 10.00 Fair CLR 78.8 41 26% 78 29.95 0.0
04 15:50 SW 13 G 21 10.00 Fair CLR 78.8 42.8 28% 78 29.97 0.0
04 14:50 SW 16 G 21 10.00 Fair CLR 78.8 42.8 28% 78 29.99 0.0
04 13:56 SW 8 10.00 Fair CLR 78.8 46.4 32% 79 30.02 0.0
04 12:50 SW 15 G 20 10.00 Fair CLR 75.2 46.4 36% 77 30.04 0.0
04 11:51 SW 12 G 17 10.00 Fair CLR 73.4 48.2 41% 30.05 0.0
04 10:51 SW 8 10.00 Fair CLR 69.8 50 50% 30.07 0.0
04 09:51 SW 9 10.00 Fair CLR 66.2 51.8 60% 30.07 0.0
04 08:51 SW 9 10.00 Fair CLR 60.8 51.8 72% 30.08 0.0
04 07:56 SW 7 10.00 Fair CLR 55.4 50 82% 30.08 0.0
04 06:56 SW 3 10.00 Fair CLR 46.4 46.4 100% 30.08 0.0
04 06:15 SW 3 10.00 Fair CLR 44.2 43.5 97% 30.07 0.0
04 05:55 Calm 10.00 Fair CLR 45.1 43.9 95% 30.08 0.0
04 05:15 Calm 10.00 Fair CLR 45.5 44.6 97% 30.08 0.0
04 04:55 Calm 10.00 Fair CLR 45 44.1 97% 30.08 0.0
04 04:35 Calm 10.00 Fair CLR 44.6 43.9 97% 30.08 0.0
04 04:15 Calm 10.00 Fair CLR 44.1 42.8 95% 30.08 0.0
04 03:55 Calm 10.00 Fair CLR 44.8 43.5 95% 30.08 0.0
04 03:35 Calm 10.00 Fair CLR 45.7 43.9 93% 30.08 0.0
04 03:15 Calm 10.00 Fair CLR 45.7 43.2 91% 30.08 0.0
04 02:55 Calm 10.00 Fair CLR 46.2 43 89% 30.08 0.0
04 02:35 SW 3 10.00 Fair CLR 47.3 43.3 86% 30.08 0.0
04 02:15 SW 3 10.00 Fair CLR 46.2 42.6 87% 30.08 0.0
04 01:55 SW 5 10.00 Fair CLR 46.2 42.3 55.8 43.3 86% 45 30.08 0.0
04 01:35 SW 5 10.00 Fair CLR 46 42.1 86% 44 30.09 0.0
04 01:15 Calm 10.00 Fair CLR 43.7 41 90% 30.09 0.0
04 00:55 Calm 10.00 Fair CLR 45 41 86% 30.09 0.0
04 00:35 Calm 10.00 Fair CLR 44.6 41 87% 30.09 0.0
04 00:15 Calm 10.00 Fair CLR 43.9 41.2 90% 30.08 0.0
03 23:55 Calm 10.00 Fair CLR 44.4 41.2 88% 30.09 0.0
03 23:35 Calm 10.00 Fair CLR 44.2 42.1 92% 30.09 0.0
03 23:15 Calm 10.00 Fair CLR 44.6 42.3 92% 30.09 0.0
03 22:55 Calm 10.00 Fair CLR 45.5 42.8 90% 30.09 0.0
03 21:50 Calm 10.00 Fair CLR 46.4 42.8 87% 30.07 0.0
03 20:50 Calm 10.00 Fair CLR 51.8 42.8 72% 30.04 0.0
03 19:50 Calm 10.00 Fair CLR 59 37.4 45% 30.03 0.0
03 18:50 NW 6 10.00 Fair CLR 64.4 28.4 26% 30.02 0.0
03 17:50 W 7 10.00 Fair CLR 66.2 28.4 24% 30.02 0.0
03 16:50 W 7 10.00 Fair CLR 66.2 30.2 26% 30.02 0.0
03 15:50 NW 7 10.00 Fair CLR 66.2 32 28% 30.03 0.0
03 14:50 W 13 G 21 10.00 Fair CLR 64.4 33.8 32% 30.06 0.0
03 13:50 NW 9 G 17 10.00 Fair CLR 62.6 35.6 37% 30.08 0.0
03 12:50 NW 7 G 12 10.00 Fair CLR 60.8 35.6 39% 30.09 0.0
03 11:51 NW 12 G 22 10.00 Fair CLR 59 33.8 39% 30.11 0.0
03 10:50 NW 9 10.00 Fair CLR 57.2 33.8 41% 30.11 0.0
03 09:50 NW 12 10.00 Fair CLR 55.4 37.4 51% 30.11 0.0
03 08:50 N 7 10.00 Fair CLR 51.8 39.2 62% 30.11 0.0
03 07:50 NW 9 10.00 Fair CLR 48.2 39.2 71% 45 30.08 0.0
03 06:50 NW 12 10.00 Fair CLR 44.6 37.4 76% 39 30.04 0.0
03 06:15 W 6 10.00 Fair CLR 43.7 39.4 85% 41 30.03 0.0
03 05:55 W 6 10.00 Fair CLR 44.2 40.3 86% 41 30.02 0.0
03 05:35 W 6 10.00 Fair CLR 44.6 41.2 88% 42 30.01 0.0
03 05:15 W 5 10.00 Fair CLR 44.8 41.5 88% 43 30.01 0.0
03 04:55 W 6 10.00 Fair CLR 45.5 42.8 90% 43 30 0.0
03 04:35 W 5 10.00 Fair CLR 45.7 43.3 92% 44 30 0.0
03 04:15 W 5 10.00 Fair CLR 46 45.1 97% 44 29.99 0.0
03 03:55 W 6 10.00 Fair CLR 46.6 46.2 99% 44 29.98 0.0
03 03:35 W 6 7.00 Fair CLR 46.8 46.4 99% 44 29.98 0.0
03 03:15 W 3 7.00 Fair CLR 47.5 47.1 99% 29.97 0.0
03 02:55 W 5 7.00 Fair CLR 47.7 47.3 99% 46 29.96 0.0
03 02:35 W 5 5.00 Fog/Mist CLR 47.5 47.3 99% 46 29.96 0.0
03 02:15 W 3 7.00 Fair CLR 47.7 47.3 99% 29.96 0.0
03 01:55 W 5 7.00 Fair CLR 47.7 47.3 51.4 47.7 99% 46 29.96 0.0 0.01
03 01:35 W 3 7.00 Fair CLR 47.8 47.3 98% 29.96 0.0
03 01:15 W 3 7.00 Fair CLR 48.6 48.2 99% 29.96 0.0
03 00:55 W 5 10.00 Fair CLR 49.1 48.4 97% 48 29.96 0.0
03 00:15 NW 5 10.00 Fair CLR 49.8 48.9 97% 49 29.95 0.0
02 23:55 W 3 10.00 Fair CLR 50.4 49.6 97% 29.95 0.0
02 23:35 NW 3 10.00 Partly Cloudy SCT120 50.4 49.6 97% 29.95 0.0
02 23:15 W 5 10.00 Mostly Cloudy BKN120 50.4 49.6 97% 29.95 0.0
02 22:55 W 5 10.00 Mostly Cloudy BKN120 50.2 49.6 98% 29.94 0.0 0.01
02 20:51 Calm 10.00 Overcast SCT090 OVC011 51.8 50 94% 29.91 0.0
02 19:51 N 3 10.00 Light Rain OVC024 51.8 48.2 88% 29.91 0.0
02 18:51 N 6 10.00 Overcast OVC018 51.8 48.2 88% 29.89 0.0
02 17:51 N 8 7.00 Light Rain OVC014 51.8 48.2 88% 29.88 0.0
02 16:50 N 13 5.00 Overcast OVC009 51.8 51.8 100% 29.87 0.0
02 15:51 N 10 7.00 Light Rain BKN007 OVC011 53.6 53.6 100% 29.87 0.0
02 15:31 N 9 5.00 Light Rain BKN009 OVC014 53.6 53.6 100% 29.88 0.0
02 14:51 N 10 7.00 Light Rain NULL 53.6 53.6 100% 29.89 0.0
02 13:50 N 7 7.00 Light Rain OVC008 53.6 53.6 100% 29.9 0.0
02 12:50 NE 8 4.00 Rain BKN008 BKN015 OVC021 53.6 53.6 100% 29.92 0.0
02 11:50 N 9 3.00 Light Rain BKN008 OVC013 55.4 55.4 100% 29.92 0.0
02 10:50 N 8 2.00 Rain BKN010 OVC050 55.4 53.6 94% 29.93 0.0
02 09:50 NE 9 10.00 Overcast BKN014 OVC080 55.4 53.6 94% 29.9 0.0
02 08:50 NE 6 10.00 Overcast OVC080 55.4 53.6 94% 29.89 0.0
02 07:50 N 8 10.00 Overcast OVC100 55.4 53.6 94% 29.89 0.0
02 06:50 N 5 10.00 Light Rain SCT033 BKN041 OVC100 53.6 53.6 100% 29.89 0.0
Date Time (edt) Wind (mph) Vis. (mi.) Weather Sky Cond. Air Dwpt Max. Min. Relative Humidity Wind Chill (°F) Heat Index (°F) altimeter (in) sea level (mb) 1 hr 3 hr 6 hr
6 hour
Temperature (ºF) Pressure Precipitation (in)